Weather History for Bigfork, MN

Change the Weather History Date:

Friday, October 4, 2013

  Actual Average (KGPZ) Record (KGPZ)
Temperature  
Mean Temperature 51 °F -  
Max Temperature 60 °F 60 °F 84 °F (1922)
Min Temperature 42 °F 38 °F 17 °F (1935)
Degree Days  
Heating Degree Days 14    
Growing Degree Days 1 (Base 50)    
Moisture  
Dew Point 44 °F    
Average Humidity 76    
Maximum Humidity 93    
Minimum Humidity 59    
Precipitation  
Precipitation 0.00 in - - ()
Sea Level Pressure  
Sea Level Pressure 30.13 in    
Wind  
Wind Speed 6 mph (NE)    
Max Wind Speed 15 mph    
Max Gust Speed 25 mph    
Visibility 10 miles    
Events Rain    
Averages and records for this station are not official NWS values.
T = Trace of Precipitation, MM = Missing Value Source: NWS Daily Summary

Daily Weather History Graph

Daily Weather History Graph

Search for Another Location

Airport:

Trip Planner

Search our weather history database for the weather conditions in past years. The results will help you decide how hot, cold, wet, or windy it might be!

Date:

Astronomy

Oct. 04, 2013 Rise Set
Actual Time 7:18 AM CDT 6:47 PM CDT
Civil Twilight 6:47 AM CDT 7:18 PM CDT
Nautical Twilight 6:11 AM CDT 7:53 PM CDT
Astronomical Twilight 5:35 AM CDT 8:30 PM CDT
Moon 6:55 AM CDT (10/4) 6:27 PM CDT (10/4)
Length of Visible Light 12h 30m
Length of Day
11h 28m
Waning Crescent, 0% of the Moon is Illuminated
Oct 4
Waning Crescent
Oct 4
New
Oct 11
First Quarter
Oct 18
Full
Oct 26
Last Quarter

Hourly Weather History & Observations

Time (CDT) Temp. Windchill Dew Point Humidity Pressure Visibility Wind Dir Wind Speed Gust Speed Precip Events Conditions
12:13 AM 51.8 °F - 46.4 °F 82% 30.09 in 10.0 mi North 3.5 mph - N/A   Clear
12:33 AM 50.0 °F - 46.4 °F 87% 30.09 in 10.0 mi North 3.5 mph - N/A   Clear
12:53 AM 48.2 °F - 44.6 °F 87% 30.08 in 10.0 mi North 4.6 mph - N/A   Clear
1:13 AM 48.2 °F - 44.6 °F 87% 30.09 in 10.0 mi North 3.5 mph - N/A   Scattered Clouds
1:33 AM 48.2 °F - 44.6 °F 87% 30.09 in 10.0 mi NNE 3.5 mph - N/A   Scattered Clouds
1:53 AM 48.2 °F - 44.6 °F 87% 30.09 in 10.0 mi Calm Calm - N/A   Clear
2:13 AM 48.2 °F - 44.6 °F 87% 30.10 in 10.0 mi Calm Calm - N/A   Clear
2:33 AM 48.2 °F - 44.6 °F 87% 30.10 in 10.0 mi Calm Calm - N/A   Scattered Clouds
2:53 AM 48.2 °F - 44.6 °F 87% 30.09 in 10.0 mi Calm Calm - N/A   Mostly Cloudy
3:13 AM 46.4 °F 44.3 °F 44.6 °F 93% 30.08 in 10.0 mi NNE 4.6 mph - N/A   Scattered Clouds
3:33 AM 46.4 °F 45.2 °F 44.6 °F 93% 30.09 in 10.0 mi North 3.5 mph - N/A   Clear
3:53 AM 46.4 °F - 42.8 °F 87% 30.11 in 10.0 mi Calm Calm - N/A   Clear
4:13 AM 44.6 °F 43.1 °F 42.8 °F 93% 30.11 in 10.0 mi North 3.5 mph - N/A   Clear
4:33 AM 44.6 °F - 42.8 °F 93% 30.11 in 10.0 mi Calm Calm - N/A   Clear
4:53 AM 42.8 °F - 39.2 °F 87% 30.13 in 10.0 mi Calm Calm - N/A   Clear
5:13 AM 42.8 °F 41.1 °F 39.2 °F 87% 30.13 in 10.0 mi North 3.5 mph - N/A   Clear
5:33 AM 44.6 °F 42.2 °F 42.8 °F 93% 30.13 in 10.0 mi NNE 4.6 mph - N/A   Clear
5:53 AM 44.6 °F 41.4 °F 42.8 °F 93% 30.14 in 10.0 mi NNE 5.8 mph - N/A   Clear
6:13 AM 46.4 °F 42.9 °F 44.6 °F 93% 30.14 in 10.0 mi North 6.9 mph - N/A   Scattered Clouds
6:33 AM 44.6 °F 42.2 °F 42.8 °F 93% 30.15 in 10.0 mi NNE 4.6 mph - N/A   Scattered Clouds
6:53 AM 44.6 °F 41.4 °F 42.8 °F 93% 30.15 in 10.0 mi North 5.8 mph - N/A   Clear
7:13 AM 44.6 °F 40.7 °F 42.8 °F 93% 30.16 in 10.0 mi North 6.9 mph - N/A   Clear
7:33 AM 44.6 °F 40.7 °F 42.8 °F 93% 30.15 in 10.0 mi NNE 6.9 mph - N/A   Clear
7:53 AM 44.6 °F 41.4 °F 42.8 °F 93% 30.16 in 10.0 mi NNE 5.8 mph - N/A   Mostly Cloudy
8:13 AM 46.4 °F 44.3 °F 44.6 °F 93% 30.17 in 10.0 mi NNE 4.6 mph - N/A   Mostly Cloudy
8:33 AM 46.4 °F 44.3 °F 44.6 °F 93% 30.18 in 10.0 mi NNE 4.6 mph - N/A   Scattered Clouds
8:53 AM 48.2 °F - 44.6 °F 87% 30.18 in 10.0 mi NNE 8.1 mph - N/A   Scattered Clouds
9:13 AM 48.2 °F - 44.6 °F 87% 30.18 in 10.0 mi NNE 8.1 mph - N/A   Clear
9:33 AM 48.2 °F - 44.6 °F 87% 30.18 in 10.0 mi NE 5.8 mph - N/A   Clear
9:53 AM 51.8 °F - 46.4 °F 82% 30.18 in 10.0 mi NNE 6.9 mph - N/A   Clear
10:13 AM 53.6 °F - 46.4 °F 77% 30.18 in 10.0 mi NE 8.1 mph - N/A   Clear
10:33 AM 55.4 °F - 46.4 °F 72% 30.18 in 10.0 mi NNE 11.5 mph - N/A   Scattered Clouds
10:53 AM 55.4 °F - 46.4 °F 72% 30.18 in 10.0 mi NNE 8.1 mph - N/A   Scattered Clouds
11:13 AM 57.2 °F - 46.4 °F 67% 30.17 in 10.0 mi NNE 6.9 mph - N/A   Scattered Clouds
11:33 AM 57.2 °F - 46.4 °F 67% 30.17 in 10.0 mi NE 10.4 mph - N/A   Scattered Clouds
11:53 AM 57.2 °F - 46.4 °F 67% 30.17 in 10.0 mi NE 11.5 mph 17.3 mph N/A   Scattered Clouds
12:13 PM 57.2 °F - 46.4 °F 67% 30.17 in 10.0 mi NE 8.1 mph - N/A   Mostly Cloudy
12:33 PM 57.2 °F - 46.4 °F 67% 30.16 in 10.0 mi NE 11.5 mph 16.1 mph N/A   Mostly Cloudy
12:53 PM 57.2 °F - 44.6 °F 63% 30.16 in 10.0 mi NE 10.4 mph 17.3 mph N/A   Scattered Clouds
1:13 PM 60.8 °F - 46.4 °F 59% 30.15 in 10.0 mi NE 12.7 mph 17.3 mph N/A   Mostly Cloudy
1:33 PM 60.8 °F - 46.4 °F 59% 30.14 in 10.0 mi ENE 10.4 mph 17.3 mph N/A   Mostly Cloudy
1:53 PM 59.0 °F - 46.4 °F 63% 30.14 in 10.0 mi ENE 10.4 mph - N/A   Mostly Cloudy
2:13 PM 59.0 °F - 44.6 °F 59% 30.14 in 10.0 mi NE 11.5 mph 17.3 mph N/A   Mostly Cloudy
2:33 PM 57.2 °F - 44.6 °F 63% 30.14 in 10.0 mi ENE 11.5 mph 17.3 mph N/A   Overcast
2:53 PM 57.2 °F - 44.6 °F 63% 30.14 in 10.0 mi NNE 9.2 mph - N/A   Overcast
3:13 PM 57.2 °F - 44.6 °F 63% 30.14 in 10.0 mi ENE 9.2 mph - N/A   Overcast
3:33 PM 57.2 °F - 44.6 °F 63% 30.13 in 10.0 mi ENE 6.9 mph - N/A   Overcast
3:53 PM 57.2 °F - 44.6 °F 63% 30.14 in 10.0 mi NE 9.2 mph - N/A   Overcast
4:13 PM 57.2 °F - 44.6 °F 63% 30.13 in 10.0 mi NE 6.9 mph - N/A   Overcast
4:33 PM 57.2 °F - 44.6 °F 63% 30.13 in 10.0 mi NE 9.2 mph - N/A   Overcast
4:53 PM 57.2 °F - 44.6 °F 63% 30.13 in 10.0 mi NE 8.1 mph - N/A   Overcast
5:14 PM 57.2 °F - 44.6 °F 63% 30.13 in 10.0 mi NE 10.4 mph 17.3 mph N/A   Mostly Cloudy
5:33 PM 55.4 °F - 44.6 °F 67% 30.13 in 10.0 mi NE 12.7 mph 19.6 mph N/A   Scattered Clouds
5:53 PM 55.4 °F - 42.8 °F 63% 30.13 in 10.0 mi NE 13.8 mph 18.4 mph N/A   Scattered Clouds
6:13 PM 55.4 °F - 42.8 °F 63% 30.13 in 10.0 mi NE 8.1 mph - N/A   Mostly Cloudy
6:33 PM 53.6 °F - 42.8 °F 67% 30.13 in 10.0 mi NE 12.7 mph 18.4 mph N/A Rain Light Rain
6:53 PM 53.6 °F - 42.8 °F 67% 30.13 in 10.0 mi NE 11.5 mph 17.3 mph N/A   Light Drizzle
7:13 PM 53.6 °F - 42.8 °F 67% 30.13 in 10.0 mi NE 8.1 mph 18.4 mph N/A   Light Drizzle
7:33 PM 53.6 °F - 42.8 °F 67% 30.13 in 10.0 mi NE 10.4 mph 20.7 mph N/A Rain Light Rain
7:53 PM 53.6 °F - 42.8 °F 67% 30.13 in 10.0 mi NE 8.1 mph - N/A Rain Light Rain
8:13 PM 51.8 °F - 42.8 °F 71% 30.13 in 10.0 mi NE 10.4 mph 16.1 mph N/A Rain Light Rain
8:33 PM 51.8 °F - 42.8 °F 71% 30.13 in 10.0 mi NE 8.1 mph - N/A   Mostly Cloudy
8:53 PM 51.8 °F - 42.8 °F 71% 30.13 in 10.0 mi NE 8.1 mph - N/A   Mostly Cloudy
9:13 PM 51.8 °F - 44.6 °F 76% 30.13 in 10.0 mi NE 9.2 mph - N/A   Overcast
9:33 PM 51.8 °F - 44.6 °F 76% 30.13 in 10.0 mi NE 9.2 mph 16.1 mph N/A   Overcast
9:53 PM 51.8 °F - 42.8 °F 71% 30.13 in 10.0 mi NE 8.1 mph - N/A   Overcast
10:13 PM 51.8 °F - 42.8 °F 71% 30.13 in 10.0 mi ENE 6.9 mph - N/A   Overcast
10:33 PM 53.6 °F - 42.8 °F 67% 30.13 in 10.0 mi East 9.2 mph 18.4 mph N/A   Overcast
10:53 PM 53.6 °F - 42.8 °F 67% 30.11 in 10.0 mi ENE 15.0 mph 25.3 mph N/A   Overcast
11:13 PM 53.6 °F - 42.8 °F 67% 30.09 in 10.0 mi NE 12.7 mph 21.9 mph N/A   Overcast
11:33 PM 53.6 °F - 42.8 °F 67% 30.09 in 10.0 mi NE 11.5 mph 19.6 mph N/A   Overcast
11:53 PM 53.6 °F - 42.8 °F 67% 30.10 in 10.0 mi ENE 11.5 mph 17.3 mph N/A   Overcast